Location: Jackson Park
(37.2862°N, 79.9123°W)
Time: 14:44:59
(UTC+00:00)

Vanguard 1 Rocket - Pass Details

Date: 14 May 2026
Orbit: 656 x 4211 km, 34.3° (Epoch: 8 June)

Event Time Altitude Azimuth Distance (km) Brightness Sun altitude
Rises 05:19:18 0° 279° (W) 7,885 12.3 -34.1°
Reaches altitude 10° 05:27:47 10° 263° (W) 7,242 11.8 -34.0°
Enters shadow 05:40:28 17° 232° (SW) 6,773 11.4 -33.8°
Maximum altitude 05:40:59 17° 231° (SW) 6,768 - -33.8°
Drops below altitude 10° 05:54:02 10° 198° (SSW) 6,998 - -33.4°
Sets 06:02:20 0° 181° (S) 7,496 - -33.0°
